Zurück zum Katalog

FENGYUN 1C DEB

AktivSSO
NORAD 31782·DEBRIS·🇨🇳 China

Gestartet May 10, 1999 von Taiyuan Satellite Launch Center

Loading…

Nächste Überflüge (nächste 24 Stunden)

TLE

AktuellSource: Space-Track

Epoche: Sep 12, 2026, 23:19 UTC

1 31782U 99025CGH 26255.97191243  .00000570  00000-0  20242-3 0  9997
2 31782  98.9297  71.8739 0077781 269.5760 243.3952 14.36843569  6077

Verfolge FENGYUN 1C DEB in Echtzeit mit AllMySat

Download on the App Store